ONEWEB-0267 (48985 NORAD) Tracking and Keplerian Element Data

This shows tracking and keplerian element data for the satellite.

Feedback or suggestion? Click here.




ElementValue
Catalog48985
NameONEWEB-0267
Epoch Orbit565
Epoch Day211.25001157
Epoch Year2021
RAAN227.447
Inclination87.4273
Eccentricity0.0007105
Argument of Perigee158.7922
Mean Anonmoly224.1914
Mean Motion14.92675384
Decay Rate-0.01466581
L11 48985U 21060U 21211.25001157 -.01466581 00000-0 -15407+0 0 9990
L22 48985 87.4273 227.4470 0007105 158.7922 224.1914 14.92675384 5658

Live tracking and technical data element details for ONEWEB-0267 (NORAD 48985). ONEWEB-0267 can be tracked NOW for your location showing map with azimuth and elevation plus other details from your city location.

Track the satellite on the map from your city or location and see movement details for azimuth, elevation, latitude, longitude, range, height, and movement on the map or in text.







IsCatalogInMostPopularTable: catalog: 48985, numindb: 4
Update: records affected: 1



GetName: 48985 ONEWEB-0267

Hit Count: updated at: Sat, 31 Jul 2021 16:20:34 GMT